| time (UTC) | temp C | wind direction | speed KPH | gust KPH | rain 1hr cm | rain 24hr cm | rain mn cm | humidity % | barometer mb |
| 20260505130153 | -17 | 191 | 0.0 | 0.0 | 0.13 | 0.03 | 0.03 | 1022.9 | |
| 20260505124643 | -17 | 180 | 11.3 | 16.1 | 0.00 | 0.00 | 0.00 | 1022.8 | |
| 20260505124140 | -17 | 136 | 9.7 | 12.9 | 0.00 | 0.00 | 0.00 | 1022.7 | |
| 20260505123636 | -17 | 175 | 4.8 | 4.8 | 0.00 | 0.00 | 0.00 | 1022.9 | |
| 20260505123133 | -17 | 191 | 6.4 | 11.3 | 0.00 | 0.00 | 0.00 | 1022.7 | |
| 20260505122628 | -17 | 157 | 9.7 | 12.9 | 0.00 | 0.00 | 0.00 | 1022.6 | |
| 20260505122126 | -17 | 95 | 8.0 | 11.3 | 0.00 | 0.00 | 0.00 | 1022.7 | |
| 20260505121617 | -17 | 165 | 6.4 | 9.7 | 0.00 | 0.00 | 0.00 | 1022.6 | |
| 20260505121114 | -17 | 155 | 3.2 | 8.0 | 0.00 | 0.00 | 0.00 | 1022.7 | |
| 20260505120610 | -17 | 178 | 1.6 | 4.8 | 0.00 | 0.00 | 0.00 | 1022.5 | |
| 20260505120106 | -17 | 164 | 8.0 | 11.3 | 0.00 | 0.00 | 0.00 | 1022.6 | |
| 20260505115601 | -17 | 171 | 0.0 | 0.0 | 0.00 | 0.00 | 0.00 | 1022.4 | |
| 20260505115058 | -17 | 103 | 4.8 | 8.0 | 0.00 | 0.00 | 0.00 | 1022.3 | |
| 20260505114555 | -17 | 151 | 0.0 | 0.0 | 0.00 | 0.00 | 0.00 | 1022.3 | |
| 20260505114051 | -17 | 121 | 3.2 | 4.8 | 0.00 | 0.00 | 0.00 | 1022.3 | |
| 20260505113547 | -17 | 110 | 4.8 | 8.0 | 0.00 | 0.00 | 0.00 | 1022.4 | |
| 20260505113044 | -17 | 112 | 0.0 | 0.0 | 0.00 | 0.00 | 0.00 | 1022.3 | |
| 20260505112540 | -17 | 152 | 0.0 | 0.0 | 0.00 | 0.00 | 0.00 | 1022.1 | |
| 20260505112038 | -17 | 139 | 0.0 | 0.0 | 0.00 | 0.00 | 0.00 | 1022.3 | |
| 20260505111532 | -17 | 200 | 0.0 | 0.0 | 0.00 | 0.00 | 0.00 | 1022.2 | |
| 20260505111029 | -17 | 215 | 0.0 | 0.0 | 0.00 | 0.00 | 0.00 | 1022.0 | |
| 20260505110525 | -17 | 267 | 0.0 | 0.0 | 0.00 | 0.00 | 0.00 | 1022.2 | |
| 20260505101952 | -17 | 290 | 0.0 | 0.0 | 0.00 | 0.00 | 0.00 | 1021.5 | |
| 20260505101450 | -17 | 274 | 0.0 | 0.0 | 0.00 | 0.00 | 0.00 | 1021.3 | |
| 20260505100946 | -17 | 277 | 0.0 | 0.0 | 0.00 | 0.00 | 0.00 | 1021.5 | |
| 20260505100444 | -17 | 250 | 0.0 | 0.0 | 0.00 | 0.00 | 0.00 | 1021.4 | |
| 20260505095939 | -17 | 264 | 0.0 | 0.0 | 0.00 | 0.00 | 0.00 | 1021.3 | |
| 20260505095436 | -17 | 240 | 0.0 | 0.0 | 0.00 | 0.00 | 0.00 | 1021.4 | |
| 20260505094932 | -17 | 275 | 0.0 | 0.0 | 0.00 | 0.00 | 0.00 | 1021.4 | |
| 20260505094429 | -17 | 263 | 0.0 | 0.0 | 0.00 | 0.00 | 0.00 | 1021.0 | |
| 20260505093926 | -17 | 284 | 0.0 | 0.0 | 0.00 | 0.00 | 0.00 | 1021.0 | |
| 20260505093423 | -17 | 259 | 0.0 | 0.0 | 0.00 | 0.00 | 0.00 | 1020.9 | |
| 20260505092920 | -17 | 268 | 0.0 | 0.0 | 0.00 | 0.00 | 0.00 | 1021.1 | |
| 20260505092418 | -17 | 293 | 0.0 | 0.0 | 0.00 | 0.00 | 0.00 | 1021.2 | |
| 20260505091915 | -17 | 267 | 0.0 | 0.0 | 0.00 | 0.00 | 0.00 | 1021.0 | |
| 20260505091412 | -17 | 256 | 0.0 | 0.0 | 0.00 | 0.00 | 0.00 | 1021.1 | |
| 20260505090910 | -17 | 278 | 0.0 | 0.0 | 0.00 | 0.00 | 0.00 | 1021.1 | |
| 20260505090408 | -17 | 276 | 0.0 | 0.0 | 0.00 | 0.00 | 0.00 | 1021.0 | |
| 20260505085905 | -17 | 261 | 0.0 | 0.0 | 0.00 | 0.00 | 0.00 | 1021.2 | |
| 20260505085403 | -17 | 269 | 0.0 | 0.0 | 0.00 | 0.00 | 0.00 | 1020.8 | |
| 20260505084901 | -17 | 268 | 0.0 | 0.0 | 0.00 | 0.00 | 0.00 | 1020.8 | |
| 20260505084359 | -17 | 257 | 1.6 | 3.2 | 0.00 | 0.00 | 0.00 | 1020.9 | |
| 20260505083856 | -17 | 276 | 0.0 | 0.0 | 0.00 | 0.00 | 0.00 | 1020.6 | |
| 20260505083354 | -17 | 273 | 0.0 | 0.0 | 0.00 | 0.00 | 0.00 | 1020.6 | |
| 20260505082850 | -17 | 286 | 0.0 | 0.0 | 0.00 | 0.00 | 0.00 | 1020.8 | |
| 20260505082346 | -17 | 273 | 0.0 | 0.0 | 0.00 | 0.00 | 0.00 | 1020.7 | |
| 20260505081843 | -17 | 269 | 0.0 | 0.0 | 0.00 | 0.00 | 0.00 | 1020.8 | |
| 20260505081340 | -17 | 270 | 0.0 | 0.0 | 0.00 | 0.00 | 0.00 | 1020.6 | |
| 20260505080836 | -17 | 270 | 0.0 | 0.0 | 0.00 | 0.00 | 0.00 | 1020.7 | |
| 20260505080332 | -17 | 259 | 0.0 | 0.0 | 0.00 | 0.00 | 0.00 | 1020.3 | |
| 20260505075827 | -17 | 253 | 0.0 | 0.0 | 0.00 | 0.00 | 0.00 | 1020.5 | |
| 20260505075325 | -17 | 273 | 0.0 | 0.0 | 0.00 | 0.00 | 0.00 | 1020.5 | |
| 20260505074822 | -17 | 255 | 0.0 | 0.0 | 0.00 | 0.00 | 0.00 | 1020.5 | |
| 20260505074319 | -17 | 278 | 0.0 | 0.0 | 0.00 | 0.00 | 0.00 | 1020.3 | |
| 20260505073817 | -17 | 274 | 0.0 | 0.0 | 0.00 | 0.00 | 0.00 | 1020.6 | |
| 20260505073315 | -17 | 272 | 0.0 | 0.0 | 0.00 | 0.00 | 0.00 | 1020.6 | |
| 20260505072811 | -17 | 270 | 0.0 | 0.0 | 0.00 | 0.00 | 0.00 | 1020.5 | |
| 20260505072307 | -17 | 272 | 0.0 | 0.0 | 0.00 | 0.00 | 0.00 | 1020.7 | |
| 20260505071803 | -17 | 270 | 0.0 | 0.0 | 0.00 | 0.00 | 0.00 | 1020.6 | |
| 20260505071300 | -17 | 265 | 0.0 | 0.0 | 0.00 | 0.00 | 0.00 | 1020.6 | |
| 20260505070758 | -17 | 286 | 0.0 | 0.0 | 0.00 | 0.00 | 0.00 | 1020.4 | |
| 20260505070254 | -17 | 264 | 0.0 | 0.0 | 0.00 | 0.00 | 0.00 | 1020.6 | |
| 20260505065749 | -17 | 264 | 0.0 | 0.0 | 0.00 | 0.00 | 0.00 | 1020.7 | |
| 20260505065246 | -17 | 275 | 0.0 | 0.0 | 0.00 | 0.00 | 0.00 | 1020.5 | |
| 20260505064744 | -17 | 265 | 0.0 | 0.0 | 0.00 | 0.00 | 0.00 | 1020.5 | |
| 20260505064241 | -17 | 270 | 0.0 | 0.0 | 0.00 | 0.00 | 0.00 | 1020.7 | |
| 20260505063738 | -17 | 276 | 0.0 | 0.0 | 0.00 | 0.00 | 0.00 | 1020.7 | |
| 20260505063235 | -17 | 273 | 0.0 | 0.0 | 0.00 | 0.00 | 0.00 | 1020.7 | |
| 20260505062731 | -17 | 273 | 0.0 | 0.0 | 0.00 | 0.00 | 0.00 | 1020.7 | |
| 20260505062229 | -17 | 285 | 0.0 | 0.0 | 0.00 | 0.00 | 0.00 | 1020.7 | |
| 20260505061725 | -17 | 265 | 0.0 | 0.0 | 0.00 | 0.00 | 0.00 | 1020.7 | |
| 20260505061224 | -17 | 256 | 0.0 | 0.0 | 0.00 | 0.00 | 0.00 | 1020.8 | |
| 20260505060721 | -17 | 281 | 0.0 | 0.0 | 0.00 | 0.00 | 0.00 | 1020.7 | |
| 20260505060218 | -17 | 271 | 0.0 | 0.0 | 0.00 | 0.00 | 0.00 | 1021.1 | |
| 20260505055713 | -17 | 264 | 0.0 | 0.0 | 0.00 | 0.00 | 0.00 | 1021.1 | |
| 20260505055209 | -17 | 276 | 0.0 | 0.0 | 0.00 | 0.00 | 0.00 | 1021.0 | |
| 20260505054707 | -17 | 288 | 0.0 | 0.0 | 0.00 | 0.00 | 0.00 | 1021.1 | |
| 20260505054205 | -17 | 265 | 0.0 | 0.0 | 0.00 | 0.00 | 0.00 | 1021.1 | |
| 20260505053703 | -17 | 255 | 0.0 | 0.0 | 0.00 | 0.00 | 0.00 | 1021.2 | |
| 20260505053159 | -17 | 271 | 0.0 | 0.0 | 0.00 | 0.00 | 0.00 | 1021.3 | |
| 20260505052655 | -17 | 315 | 0.0 | 0.0 | 0.00 | 0.00 | 0.00 | 1021.4 | |
| 20260505052147 | -17 | 287 | 0.0 | 0.0 | 0.00 | 0.00 | 0.00 | 1021.1 | |
| 20260505051644 | -17 | 268 | 0.0 | 0.0 | 0.00 | 0.00 | 0.00 | 1021.3 | |
| 20260505051142 | -17 | 255 | 0.0 | 0.0 | 0.00 | 0.00 | 0.00 | 1021.5 | |
| 20260505050640 | -17 | 251 | 0.0 | 0.0 | 0.00 | 0.00 | 0.00 | 1021.3 | |
| 20260505050138 | -17 | 277 | 0.0 | 0.0 | 0.00 | 0.00 | 0.00 | 1021.5 | |
| 20260505041607 | -17 | 266 | 0.0 | 0.0 | 0.00 | 0.00 | 0.00 | 1022.1 | |
| 20260505041105 | -17 | 275 | 0.0 | 0.0 | 0.00 | 0.00 | 0.00 | 1021.9 | |
| 20260505040602 | -17 | 278 | 0.0 | 0.0 | 0.00 | 0.00 | 0.00 | 1021.8 | |
| 20260505040059 | -17 | 275 | 0.0 | 0.0 | 0.00 | 0.00 | 0.00 | 1022.1 | |
| 20260505035555 | -17 | 279 | 0.0 | 0.0 | 0.00 | 0.56 | 0.56 | 1022.1 | |
| 20260505035051 | -17 | 269 | 0.0 | 0.0 | 0.00 | 0.56 | 0.56 | 1022.1 | |
| 20260505034548 | -17 | 267 | 0.0 | 0.0 | 0.00 | 0.56 | 0.56 | 1022.0 | |
| 20260505034045 | -17 | 279 | 0.0 | 0.0 | 0.00 | 0.56 | 0.56 | 1022.3 | |
| 20260505033542 | -17 | 262 | 0.0 | 0.0 | 0.00 | 0.56 | 0.56 | 1022.4 | |
| 20260505033040 | -17 | 267 | 0.0 | 0.0 | 0.00 | 0.56 | 0.56 | 1022.3 | |
| 20260505032538 | -17 | 260 | 0.0 | 0.0 | 0.00 | 0.56 | 0.56 | 1022.2 | |
| 20260505032034 | -17 | 275 | 0.0 | 0.0 | 0.00 | 0.56 | 0.56 | 1022.0 | |
| 20260505031532 | -17 | 273 | 0.0 | 0.0 | 0.00 | 0.56 | 0.56 | 1022.4 | |
| 20260505031028 | -17 | 266 | 0.0 | 0.0 | 0.00 | 0.56 | 0.56 | 1022.1 | |
| 20260505030525 | -17 | 272 | 0.0 | 0.0 | 0.00 | 0.56 | 0.56 | 1022.1 | |
| 20260505030021 | -17 | 286 | 0.0 | 0.0 | 0.00 | 0.56 | 0.56 | 1021.9 | |
| 20260505025517 | -17 | 274 | 0.0 | 0.0 | 0.00 | 0.56 | 0.56 | 1022.1 | |
| 20260505025016 | -17 | 259 | 0.0 | 0.0 | 0.00 | 0.56 | 0.56 | 1021.9 | |
| 20260505024512 | -17 | 280 | 0.0 | 0.0 | 0.00 | 0.56 | 0.56 | 1022.2 | |
| 20260505024009 | -17 | 268 | 0.0 | 0.0 | 0.00 | 0.56 | 0.56 | 1022.1 | |
| 20260505023506 | -17 | 273 | 0.0 | 0.0 | 0.00 | 0.56 | 0.56 | 1022.2 | |
| 20260505023004 | -17 | 265 | 0.0 | 0.0 | 0.00 | 0.56 | 0.56 | 1022.0 | |
| 20260505022502 | -17 | 268 | 0.0 | 0.0 | 0.00 | 0.56 | 0.56 | 1022.3 | |
| 20260505021959 | -17 | 191 | 0.0 | 0.0 | 0.00 | 0.56 | 0.56 | 1022.1 | |
| 20260505021455 | -17 | 232 | 0.0 | 0.0 | 0.00 | 0.56 | 0.56 | 1021.8 | |
| 20260505020950 | -17 | 243 | 0.0 | 0.0 | 0.00 | 0.56 | 0.56 | 1022.0 | |
| 20260505020445 | -17 | 304 | 0.0 | 0.0 | 0.00 | 0.56 | 0.56 | 1022.1 | |
| 20260505015943 | -17 | 228 | 0.0 | 0.0 | 0.00 | 0.56 | 0.56 | 1022.0 | |
| 20260505015441 | -17 | 250 | 0.0 | 0.0 | 0.00 | 0.56 | 0.56 | 1022.0 | |
| 20260505014937 | -17 | 227 | 0.0 | 0.0 | 0.00 | 0.56 | 0.56 | 1022.0 | |
| 20260505014434 | -17 | 264 | 0.0 | 0.0 | 0.00 | 0.56 | 0.56 | 1022.0 | |
| 20260505013931 | -17 | 138 | 0.0 | 0.0 | 0.05 | 0.56 | 0.56 | 1021.9 | |
| 20260505013428 | -17 | 168 | 1.6 | 3.2 | 1.27 | 0.56 | 0.56 | 1021.8 | |
| 20260505012926 | -17 | 228 | 0.0 | 0.0 | 1.75 | 0.56 | 0.56 | 1021.8 | |
| 20260505012424 | -17 | 233 | 0.0 | 0.0 | 0.48 | 0.36 | 0.36 | 1021.6 | |
| 20260505011920 | -17 | 261 | 0.0 | 0.0 | 0.00 | 0.28 | 0.28 | 1021.7 | |
| 20260505011416 | -17 | 272 | 0.0 | 0.0 | 0.00 | 0.28 | 0.28 | 1021.5 | |
| 20260505010913 | -17 | 222 | 0.0 | 0.0 | 0.00 | 0.28 | 0.28 | 1021.5 | |
| 20260505010409 | -17 | 270 | 0.0 | 0.0 | 0.00 | 0.28 | 0.28 | 1021.4 | |
| 20260505005905 | -17 | 271 | 0.0 | 0.0 | 0.00 | 0.28 | 0.28 | 1021.6 | |
| 20260505005402 | -17 | 283 | 0.0 | 0.0 | 0.00 | 0.28 | 0.28 | 1021.5 | |
| 20260505004900 | -17 | 281 | 0.0 | 0.0 | 0.00 | 0.28 | 0.28 | 1021.5 | |
| 20260505004356 | -17 | 262 | 0.0 | 0.0 | 0.00 | 0.28 | 0.28 | 1021.7 | |
| 20260505003853 | -17 | 258 | 0.0 | 0.0 | 0.00 | 0.28 | 0.28 | 1021.2 | |
| 20260505003350 | -17 | 264 | 0.0 | 0.0 | 0.00 | 0.28 | 0.28 | 1021.4 | |
| 20260505002846 | -17 | 268 | 0.0 | 0.0 | 0.00 | 0.28 | 0.28 | 1021.4 | |
| 20260505002343 | -17 | 274 | 0.0 | 0.0 | 0.00 | 0.28 | 0.28 | 1021.4 | |
| 20260505001842 | -17 | 243 | 0.0 | 0.0 | 0.00 | 0.28 | 0.28 | 1021.3 | |
| 20260505001338 | -17 | 304 | 4.8 | 4.8 | 0.00 | 0.28 | 0.28 | 1021.1 | |
| 20260505000835 | -17 | 269 | 0.0 | 0.0 | 0.00 | 0.28 | 0.28 | 1021.0 | |
| 20260505000333 | -17 | 253 | 0.0 | 0.0 | 0.00 | 0.28 | 0.28 | 1021.1 | |
| 20260504235830 | -17 | 246 | 0.0 | 0.0 | 0.00 | 0.28 | 0.28 | 1021.1 | |
| 20260504235327 | -17 | 274 | 0.0 | 0.0 | 0.00 | 0.28 | 0.28 | 1021.2 | |
| 20260504234823 | -17 | 267 | 0.0 | 0.0 | 0.00 | 0.28 | 0.28 | 1020.9 | |
| 20260504234321 | -17 | 220 | 0.0 | 0.0 | 0.00 | 0.28 | 0.28 | 1021.0 | |
| 20260504233817 | -17 | 252 | 0.0 | 0.0 | 0.00 | 0.28 | 0.28 | 1021.1 | |
| 20260504233313 | -17 | 268 | 0.0 | 0.0 | 0.00 | 0.28 | 0.28 | 1020.9 | |
| 20260504232810 | -17 | 246 | 0.0 | 0.0 | 0.00 | 0.28 | 0.28 | 1020.7 | |
| 20260504232307 | -17 | 287 | 0.0 | 0.0 | 0.00 | 0.28 | 0.28 | 1021.0 | |
| 20260504231804 | -17 | 255 | 0.0 | 0.0 | 0.00 | 0.28 | 0.28 | 1020.6 | |
| 20260504231301 | -17 | 254 | 0.0 | 0.0 | 0.00 | 0.28 | 0.28 | 1020.7 | |
| 20260504230756 | -17 | 238 | 0.0 | 0.0 | 0.00 | 0.28 | 0.28 | 1020.6 | |
| 20260504230254 | -17 | 249 | 0.0 | 0.0 | 0.00 | 0.28 | 0.28 | 1020.7 | |
| 20260504225753 | -17 | 229 | 0.0 | 0.0 | 0.00 | 0.28 | 0.28 | 1020.7 | |
| 20260504225249 | -17 | 244 | 0.0 | 0.0 | 0.00 | 0.28 | 0.28 | 1020.5 | |
| 20260504224746 | -17 | 247 | 0.0 | 0.0 | 0.00 | 0.28 | 0.28 | 1020.2 | |
| 20260504224243 | -17 | 229 | 0.0 | 0.0 | 0.00 | 0.28 | 0.28 | 1020.5 | |
| 20260504223740 | -17 | 237 | 0.0 | 0.0 | 0.00 | 0.28 | 0.28 | 1020.3 | |
| 20260504223235 | -17 | 221 | 0.0 | 0.0 | 0.00 | 0.28 | 0.28 | 1020.5 | |
| 20260504222732 | -17 | 235 | 0.0 | 0.0 | 0.00 | 0.28 | 0.28 | 1020.2 | |
| 20260504222229 | -17 | 241 | 0.0 | 0.0 | 0.00 | 0.28 | 0.28 | 1020.2 | |
| 20260504221727 | -17 | 246 | 0.0 | 0.0 | 0.00 | 0.28 | 0.28 | 1020.1 | |
| 20260504221223 | -17 | 221 | 0.0 | 0.0 | 0.00 | 0.28 | 0.28 | 1020.3 | |
| 20260504220720 | -17 | 209 | 0.0 | 0.0 | 0.00 | 0.28 | 0.28 | 1020.1 | |
| 20260504220217 | -17 | 185 | 0.0 | 0.0 | 0.00 | 0.28 | 0.28 | 1020.2 | |
| 20260504215714 | -17 | 232 | 0.0 | 1.6 | 0.00 | 0.28 | 0.28 | 1019.9 | |
| 20260504215211 | -17 | 89 | 11.3 | 14.5 | 0.00 | 0.28 | 0.28 | 1020.0 | |
| 20260504214706 | -17 | 211 | 0.0 | 0.0 | 0.00 | 0.28 | 0.28 | 1020.1 | |
| 20260504214203 | -17 | 164 | 0.0 | 0.0 | 0.00 | 0.28 | 0.28 | 1019.9 | |
| 20260504213700 | -17 | 185 | 0.0 | 0.0 | 0.00 | 0.28 | 0.28 | 1020.0 | |
| 20260504213157 | -17 | 212 | 0.0 | 0.0 | 0.23 | 0.28 | 0.28 | 1020.1 | |
| 20260504212653 | -17 | 112 | 0.0 | 1.6 | 0.30 | 0.28 | 0.28 | 1020.0 | |
| 20260504212150 | -17 | 147 | 0.0 | 0.0 | 0.48 | 0.25 | 0.25 | 1019.9 | |
| 20260504211647 | -17 | 129 | 3.2 | 8.0 | 0.30 | 0.23 | 0.23 | 1019.8 | |
| 20260504211143 | -17 | 107 | 1.6 | 4.8 | 0.00 | 0.18 | 0.18 | 1019.7 | |
| 20260504210642 | -17 | 211 | 3.2 | 9.7 | 0.00 | 0.18 | 0.18 | 1019.6 | |
| 20260504210137 | -17 | 118 | 0.0 | 3.2 | 0.00 | 0.18 | 0.18 | 1019.3 | |
| 20260504205635 | -17 | 96 | 0.0 | 0.0 | 0.00 | 0.18 | 0.18 | 1019.6 | |
| 20260504205132 | -17 | 186 | 0.0 | 0.0 | 0.18 | 0.18 | 0.18 | 1019.6 | |
| 20260504204631 | -17 | 124 | 1.6 | 3.2 | 0.18 | 0.18 | 0.18 | 1019.4 | |
| 20260504204129 | -17 | 187 | 0.0 | 0.0 | 0.00 | 0.15 | 0.15 | 1019.3 | |
| 20260504203628 | -17 | 191 | 0.0 | 0.0 | 0.00 | 0.15 | 0.15 | 1019.4 | |
| 20260504203126 | -17 | 248 | 0.0 | 0.0 | 0.00 | 0.15 | 0.15 | 1019.5 | |
| 20260504202625 | -17 | 149 | 0.0 | 0.0 | 0.05 | 0.15 | 0.15 | 1019.7 | |
| 20260504202122 | -17 | 237 | 0.0 | 0.0 | 0.18 | 0.15 | 0.15 | 1019.8 | |
| 20260504201619 | -17 | 203 | 0.0 | 0.0 | 0.13 | 0.15 | 0.15 | 1019.9 | |
| 20260504201117 | -17 | 201 | 0.0 | 0.0 | 0.00 | 0.13 | 0.13 | 1019.8 | |
| 20260504200615 | -17 | 233 | 0.0 | 0.0 | 0.00 | 0.13 | 0.13 | 1019.7 | |
| 20260504200110 | -17 | 195 | 0.0 | 0.0 | 0.00 | 0.13 | 0.13 | 1019.8 | |
| 20260504195607 | -17 | 205 | 0.0 | 0.0 | 0.00 | 0.13 | 0.13 | 1019.6 | |
| 20260504195103 | -17 | 249 | 0.0 | 1.6 | 0.13 | 0.13 | 0.13 | 1019.9 | |
| 20260504194600 | -17 | 220 | 4.8 | 8.0 | 0.53 | 0.13 | 0.13 | 1019.8 | |
| 20260504194055 | -17 | 239 | 9.7 | 14.5 | 0.61 | 0.10 | 0.10 | 1019.9 | |
| 20260504193552 | -17 | 156 | 16.1 | 20.9 | 0.05 | 0.00 | 0.00 | 1020.1 | |
| 20260504193050 | -17 | 177 | 11.3 | 16.1 | 0.00 | 0.00 | 0.00 | 1020.0 | |
| 20260504192549 | -17 | 132 | 9.7 | 12.9 | 0.00 | 0.00 | 0.00 | 1019.9 | |
| 20260504192046 | -17 | 124 | 9.7 | 12.9 | 0.00 | 0.00 | 0.00 | 1019.6 | |
| 20260504191544 | -17 | 138 | 19.3 | 24.1 | 0.00 | 0.00 | 0.00 | 1019.5 | |
| 20260504191040 | -17 | 147 | 14.5 | 22.5 | 0.00 | 0.00 | 0.00 | 1020.1 | |
| 20260504190536 | -17 | 104 | 11.3 | 16.1 | 0.00 | 0.00 | 0.00 | 1020.0 | |
| 20260504190032 | -17 | 124 | 22.5 | 27.4 | 0.00 | 0.00 | 0.00 | 1019.8 | |
| 20260504185530 | -17 | 94 | 17.7 | 22.5 | 0.00 | 0.00 | 0.00 | 1020.1 | |
| 20260504185026 | -17 | 129 | 19.3 | 22.5 | 0.00 | 0.00 | 0.00 | 1020.0 | |
| 20260504184521 | -17 | 112 | 12.9 | 22.5 | 0.00 | 0.00 | 0.00 | 1019.9 | |
| 20260504184017 | -17 | 103 | 16.1 | 20.9 | 0.00 | 0.00 | 0.00 | 1020.2 | |
| 20260504183515 | -17 | 104 | 9.7 | 12.9 | 0.00 | 0.00 | 0.00 | 1020.0 | |
| 20260504183013 | -17 | 134 | 17.7 | 22.5 | 0.00 | 0.00 | 0.00 | 1020.2 | |
| 20260504182509 | -17 | 151 | 9.7 | 12.9 | 0.00 | 0.00 | 0.00 | 1020.3 | |
| 20260504182006 | -17 | 110 | 17.7 | 24.1 | 0.00 | 0.00 | 0.00 | 1020.4 | |
| 20260504181503 | -17 | 136 | 16.1 | 20.9 | 0.00 | 0.00 | 0.00 | 1020.3 | |
| 20260504181002 | -17 | 120 | 3.2 | 4.8 | 0.00 | 0.00 | 0.00 | 1020.3 | |
| 20260504180501 | -17 | 86 | 8.0 | 11.3 | 0.00 | 0.00 | 0.00 | 1020.3 | |
| 20260504175958 | -17 | 147 | 11.3 | 11.3 | 0.00 | 0.00 | 0.00 | 1020.3 | |
| 20260504175455 | -17 | 148 | 12.9 | 17.7 | 0.00 | 0.00 | 0.00 | 1020.5 | |
| 20260504174953 | -17 | 126 | 17.7 | 24.1 | 0.00 | 0.00 | 0.00 | 1020.8 | |
| 20260504174450 | -17 | 109 | 11.3 | 14.5 | 0.00 | 0.00 | 0.00 | 1020.8 | |
| 20260504173947 | -17 | 87 | 12.9 | 20.9 | 0.00 | 0.00 | 0.00 | 1020.8 | |
| 20260504173443 | -17 | 149 | 22.5 | 24.1 | 0.00 | 0.00 | 0.00 | 1020.9 | |
| 20260504172941 | -17 | 154 | 8.0 | 11.3 | 0.00 | 0.00 | 0.00 | 1020.6 | |
| 20260504172437 | -17 | 111 | 11.3 | 16.1 | 0.00 | 0.00 | 0.00 | 1020.8 | |
| 20260504171934 | -17 | 101 | 8.0 | 22.5 | 0.00 | 0.00 | 0.00 | 1021.0 | |
| 20260504171431 | -17 | 116 | 14.5 | 22.5 | 0.00 | 0.00 | 0.00 | 1021.1 | |
| 20260504170928 | -17 | 96 | 11.3 | 14.5 | 0.00 | 0.00 | 0.00 | 1021.1 | |
| 20260504170424 | -17 | 139 | 17.7 | 22.5 | 0.00 | 0.00 | 0.00 | 1021.1 | |
| 20260504160343 | -17 | 93 | 1.6 | 12.9 | 0.00 | 0.00 | 0.00 | 1022.0 | |
| 20260504150808 | -17 | 120 | 9.7 | 16.1 | 0.00 | 0.00 | 0.00 | 1021.9 | |
| 20260504150304 | -17 | 103 | 20.9 | 24.1 | 0.00 | 0.00 | 0.00 | 1021.8 | |
| 20260504141235 | -17 | 55 | 0.0 | 1.6 | 0.00 | 0.00 | 0.00 | 1021.9 | |
| 20260504140731 | -17 | 75 | 6.4 | 9.7 | 0.00 | 0.00 | 0.00 | 1021.9 | |
| 20260504140226 | -17 | 114 | 11.3 | 16.1 | 0.00 | 0.00 | 0.00 | 1021.9 |